This is the latest recevied weather packets stored in our database for station/object KB3AWQ. If no packets are shown the sender has not sent any weather packets the latest 10 day(s).
| Time | Temp. | Humidity | Pressure | Rain* | Wind** | Luminosity | Snow |
|---|---|---|---|---|---|---|---|
| 1788009567 | 16.67° C | 88% | 1025.6 hPa | 0 mm | - | 394 W/m² | - |
| 1788009266 | 16.67° C | 87% | 1025.6 hPa | 0 mm | - | 371 W/m² | - |
| 1788008966 | 16.67° C | 87% | 1025.6 hPa | 0 mm | - | 371 W/m² | - |
| 1788008667 | 16.11° C | 87% | 1025.7 hPa | 0 mm | - | 364 W/m² | - |
| 1788008367 | 16.11° C | 90% | 1025.8 hPa | 0 mm | - | 359 W/m² | - |
| 1788008066 | 16.11° C | 88% | 1025.8 hPa | 0 mm | - | 348 W/m² | - |
| 1788007768 | 16.67° C | 88% | 1025.8 hPa | 0 mm | - | 331 W/m² | - |
| 1788007467 | 16.67° C | 87% | 1025.8 hPa | 0 mm | - | 317 W/m² | - |
| 1788007167 | 16.11° C | 89% | 1025.8 hPa | 0 mm | - | 318 W/m² | - |
| 1788006866 | 16.11° C | 86% | 1025.8 hPa | 0 mm | - | 291 W/m² | - |
| 1788006573 | 15.56° C | 89% | 1025.8 hPa | 0 mm | - | 297 W/m² | - |
| 1788006266 | 15° C | 90% | 1025.8 hPa | 0 mm | - | 281 W/m² | - |
| 1788005967 | 14.44° C | 92% | 1025.7 hPa | 0 mm | - | 266 W/m² | - |
| 1788005666 | 14.44° C | 93% | 1025.7 hPa | 0 mm | - | 262 W/m² | - |
| 1788005367 | 13.89° C | 93% | 1025.7 hPa | 0 mm | - | 181 W/m² | - |
| 1788005066 | 13.89° C | 92% | 1025.7 hPa | 0 mm | - | 116 W/m² | - |
| 1788004766 | 13.33° C | 93% | 1025.7 hPa | 0 mm | - | 182 W/m² | - |
| 1788004466 | 13.33° C | 94% | 1025.6 hPa | 0 mm | - | 165 W/m² | - |
| 1788004166 | 12.78° C | 94% | 1025.6 hPa | 0 mm | - | 148 W/m² | - |
| 1788003866 | 12.78° C | 95% | 1025.5 hPa | 0 mm | - | 132 W/m² | - |
| 1788003566 | 12.78° C | 95% | 1025.5 hPa | 0 mm | - | 118 W/m² | - |
| 1788003266 | 12.22° C | 96% | 1025.4 hPa | 0 mm | - | 105 W/m² | - |
| 1788002968 | 12.22° C | 97% | 1025.3 hPa | 0 mm | - | 92 W/m² | - |
| 1788002667 | 11.67° C | 99% | 1025.1 hPa | 0 mm | - | 79 W/m² | - |
| 1788002367 | 11.11° C | 100% | 1025 hPa | 0 mm | - | 54 W/m² | - |
* Rain latest hour (hover to see other rain measurements)
** Current wind speed in m/s (hover to see current wind gust speed)